Location: ??????
(36.0418°N, 43.6351°E)
Time: 03:12:49
(UTC+00:00)

ADEOS - Pass Details

Date: 07 March 2021
Orbit: 792 x 794 km, 98.9° (Epoch: 22 April)

Event Time Altitude Azimuth Distance (km) Brightness Sun altitude
Rises 02:40:42 0° 2° (N) 3,302 6.8 -10.3°
Reaches altitude 10° 02:43:14 10° 353° (N) 2,369 6.0 -9.8°
Maximum altitude 02:47:50 33° 291° (WNW) 1,322 4.3 -8.9°
Drops below altitude 10° 02:52:26 10° 229° (SW) 2,355 5.6 -7.9°
Sets 02:54:56 0° 220° (SW) 3,281 6.4 -7.4°
